Cumberland, WV

3:29 AM EDT on May 25, 2017 (GMT -0400)
Greater Cumberland Regional

Weather History for KCBE - November, 2013

Change the Weather History Date:

Wednesday, November 27, 2013

  Actual Average (KMRB) Record (KMRB)
Temperature  
Mean Temperature 32 °F -  
Max Temperature 37 °F 52 °F 71 °F (1976)
Min Temperature 28 °F 33 °F 8 °F (1938)
Degree Days  
Heating Degree Days 32    
Moisture  
Dew Point 26 °F    
Average Humidity 72    
Maximum Humidity 100    
Minimum Humidity 51    
Precipitation  
Precipitation 0.00 in - - ()
Sea Level Pressure  
Sea Level Pressure 29.81 in    
Wind  
Wind Speed 8 mph (NW)    
Max Wind Speed 24 mph    
Max Gust Speed 32 mph    
Visibility 9 miles    
Events      
Averages and records for this station are not official NWS values.
T = Trace of Precipitation, MM = Missing Value Source: NWS Daily Summary

Daily Weather History Graph

Daily Weather History Graph

Search for Another Location

Airport or City:

Trip Planner

Search our weather history database for the weather conditions in past years. The results will help you decide how hot, cold, wet, or windy it might be!

Date:

Astronomy

Nov. 27, 2013 Rise Set
Actual Time 7:12 AM EST 4:52 PM EST
Civil Twilight 6:43 AM EST 5:22 PM EST
Nautical Twilight 6:09 AM EST 5:55 PM EST
Astronomical Twilight 5:37 AM EST 6:27 PM EST
Moon 1:14 AM EST (11/27) 1:27 PM EST (11/27)
Length of Visible Light 10h 38m
Length of Day
9h 39m
Waning Crescent, 32% of the Moon is Illuminated
Nov 27
Waning Crescent
Dec 2
New
Dec 9
First Quarter
Dec 17
Full
Dec 25
Last Quarter

Hourly Weather History & Observations

Time (EST) Temp. Windchill Dew Point Humidity Pressure Visibility Wind Dir Wind Speed Gust Speed Precip Events Conditions
2:26 AM 33.8 °F - 33.8 °F 100% 29.66 in 3.0 mi Calm Calm - N/A   Overcast
2:46 AM 33.8 °F - 33.8 °F 100% 29.67 in 2.5 mi Calm Calm - N/A   Overcast
3:06 AM 33.8 °F 30.8 °F 33.8 °F 100% 29.67 in 2.0 mi NE 3.5 mph - N/A   Overcast
3:26 AM 33.8 °F - 33.8 °F 100% 29.66 in 3.0 mi Calm Calm - N/A   Overcast
3:46 AM 35.6 °F 31.7 °F 35.6 °F 100% 29.67 in 10.0 mi WNW 4.6 mph - N/A   Overcast
4:06 AM 37.4 °F 33.8 °F 37.4 °F 100% 29.65 in 10.0 mi WNW 4.6 mph - N/A   Mostly Cloudy
4:26 AM 37.4 °F 30.8 °F 35.6 °F 93% 29.66 in 10.0 mi NW 9.2 mph 16.1 mph N/A   Overcast
4:46 AM 37.4 °F 31.4 °F 32.0 °F 81% 29.67 in 10.0 mi NNW 8.1 mph - N/A   Mostly Cloudy
5:06 AM 37.4 °F 33.8 °F 32.0 °F 81% 29.70 in 10.0 mi WNW 4.6 mph - N/A   Mostly Cloudy
5:26 AM 37.4 °F 33.8 °F 32.0 °F 81% 29.68 in 10.0 mi NW 4.6 mph - N/A   Mostly Cloudy
5:46 AM 35.6 °F 28.6 °F 32.0 °F 87% 29.68 in 10.0 mi NNW 9.2 mph 17.3 mph N/A   Mostly Cloudy
6:05 AM 35.6 °F 29.9 °F 32.0 °F 87% 29.69 in 10.0 mi North 6.9 mph - N/A   Mostly Cloudy
6:26 AM 37.4 °F 31.4 °F 32.0 °F 81% 29.69 in 10.0 mi NNW 8.1 mph - N/A   Mostly Cloudy
6:46 AM 37.4 °F 31.4 °F 30.2 °F 75% 29.69 in 10.0 mi NW 8.1 mph 16.1 mph N/A   Mostly Cloudy
7:06 AM 37.4 °F 30.3 °F 30.2 °F 75% 29.70 in 10.0 mi NNW 10.4 mph 17.3 mph N/A   Overcast
7:26 AM 37.4 °F 29.8 °F 30.2 °F 75% 29.72 in 10.0 mi NW 11.5 mph 17.3 mph N/A   Overcast
7:46 AM 37.4 °F 28.9 °F 30.2 °F 75% 29.72 in 10.0 mi NNW 13.8 mph 20.7 mph N/A   Mostly Cloudy
8:06 AM 37.4 °F 29.8 °F 30.2 °F 75% 29.72 in 10.0 mi NW 11.5 mph 20.7 mph N/A   Overcast
8:26 AM 37.4 °F 32.8 °F 30.2 °F 75% 29.74 in 10.0 mi NW 5.8 mph - N/A   Mostly Cloudy
8:46 AM 37.4 °F 28.2 °F 30.2 °F 75% 29.73 in 10.0 mi NW 16.1 mph 20.7 mph N/A   Mostly Cloudy
9:06 AM 35.6 °F 28.0 °F 30.2 °F 81% 29.75 in 10.0 mi NW 10.4 mph 16.1 mph N/A   Mostly Cloudy
9:26 AM 37.4 °F 29.3 °F 30.2 °F 75% 29.74 in 10.0 mi NW 12.7 mph 17.3 mph N/A   Mostly Cloudy
9:46 AM 37.4 °F 28.9 °F 28.4 °F 70% 29.73 in 10.0 mi NW 13.8 mph 23.0 mph N/A   Overcast
10:06 AM 37.4 °F 30.8 °F 30.2 °F 75% 29.74 in 10.0 mi NW 9.2 mph 18.4 mph N/A   Overcast
10:27 AM 37.4 °F 30.3 °F 30.2 °F 75% 29.73 in 10.0 mi NW 10.4 mph 19.6 mph N/A   Mostly Cloudy
10:47 AM 37.4 °F 29.8 °F 30.2 °F 75% 29.72 in 10.0 mi NNW 11.5 mph 21.9 mph N/A   Overcast
11:07 AM 35.6 °F 27.5 °F 30.2 °F 81% 29.68 in 10.0 mi NNW 11.5 mph 16.1 mph N/A   Mostly Cloudy
11:27 AM 37.4 °F 28.5 °F 30.2 °F 75% 29.67 in 10.0 mi NNW 15.0 mph 25.3 mph N/A   Mostly Cloudy
11:47 AM 37.4 °F 30.3 °F 28.4 °F 70% 29.70 in 10.0 mi NNW 10.4 mph 17.3 mph N/A   Mostly Cloudy
12:07 PM 37.4 °F 29.8 °F 28.4 °F 70% 29.68 in 10.0 mi NW 11.5 mph 24.2 mph N/A   Overcast
12:27 PM 37.4 °F 29.8 °F 28.4 °F 70% 29.70 in 10.0 mi NW 11.5 mph 19.6 mph N/A   Overcast
12:47 PM 35.6 °F 29.2 °F 28.4 °F 75% 29.71 in 10.0 mi NNW 8.1 mph 19.6 mph N/A   Mostly Cloudy
1:07 PM 35.6 °F 29.9 °F 28.4 °F 75% 29.70 in 10.0 mi WNW 6.9 mph 17.3 mph N/A   Mostly Cloudy
1:27 PM 37.4 °F 32.1 °F 28.4 °F 70% 29.69 in 10.0 mi NW 6.9 mph 23.0 mph N/A   Overcast
1:47 PM 35.6 °F 27.5 °F 28.4 °F 75% 29.70 in 10.0 mi NNW 11.5 mph 18.4 mph N/A   Overcast
2:07 PM 35.6 °F 25.9 °F 26.6 °F 70% 29.72 in 10.0 mi WNW 16.1 mph 23.0 mph N/A   Overcast
2:27 PM 35.6 °F 25.9 °F 28.4 °F 75% 29.73 in 7.0 mi WNW 16.1 mph 21.9 mph N/A   Overcast
2:47 PM 35.6 °F 24.5 °F 23.0 °F 60% 29.75 in 10.0 mi NW 20.7 mph 32.2 mph N/A   Overcast
3:07 PM 35.6 °F 23.7 °F 24.8 °F 65% 29.77 in 10.0 mi NNW 24.2 mph 32.2 mph N/A   Mostly Cloudy
3:27 PM 33.8 °F 24.3 °F 26.6 °F 75% 29.79 in 7.0 mi NW 13.8 mph 23.0 mph N/A   Mostly Cloudy
3:47 PM 33.8 °F 24.8 °F 26.6 °F 75% 29.81 in 10.0 mi NW 12.7 mph 18.4 mph N/A   Mostly Cloudy
4:06 PM 33.8 °F 23.2 °F 26.6 °F 75% 29.82 in 10.0 mi NW 17.3 mph 24.2 mph N/A   Mostly Cloudy
4:27 PM 32.0 °F 21.6 °F 24.8 °F 75% 29.84 in 10.0 mi NW 15.0 mph 32.2 mph N/A   Mostly Cloudy
4:47 PM 32.0 °F 24.2 °F 23.0 °F 69% 29.85 in 10.0 mi NW 9.2 mph 23.0 mph N/A   Mostly Cloudy
5:07 PM 32.0 °F 21.6 °F 21.2 °F 64% 29.87 in 10.0 mi NW 15.0 mph 32.2 mph N/A   Mostly Cloudy
5:27 PM 32.0 °F 21.6 °F 21.2 °F 64% 29.89 in 10.0 mi NNW 15.0 mph 24.2 mph N/A   Mostly Cloudy
5:47 PM 32.0 °F 22.5 °F 21.2 °F 64% 29.90 in 10.0 mi NW 12.7 mph 21.9 mph N/A   Mostly Cloudy
6:07 PM 32.0 °F 23.0 °F 21.2 °F 64% 29.92 in 5.0 mi WNW 11.5 mph 25.3 mph N/A   Mostly Cloudy
6:27 PM 32.0 °F 22.5 °F 19.4 °F 60% 29.93 in 7.0 mi NW 12.7 mph 29.9 mph N/A   Mostly Cloudy
6:48 PM 32.0 °F 19.8 °F 19.4 °F 60% 29.94 in 10.0 mi NW 20.7 mph 27.6 mph N/A   Overcast
7:08 PM 30.2 °F 20.8 °F 19.4 °F 64% 29.96 in 5.0 mi NW 11.5 mph 25.3 mph N/A   Mostly Cloudy
7:28 PM 30.2 °F 21.9 °F 17.6 °F 60% 29.98 in 10.0 mi NW 9.2 mph 26.5 mph N/A   Mostly Cloudy
7:48 PM 30.2 °F 22.6 °F 17.6 °F 60% 29.99 in 7.0 mi NW 8.1 mph 19.6 mph N/A   Mostly Cloudy
8:08 PM 28.4 °F 18.0 °F 15.8 °F 59% 29.98 in 10.0 mi NW 12.7 mph 26.5 mph N/A   Scattered Clouds
8:28 PM 28.4 °F 19.1 °F 12.2 °F 51% 30.00 in 10.0 mi West 10.4 mph 26.5 mph N/A   Scattered Clouds
8:48 PM 28.4 °F 18.5 °F 12.2 °F 51% 30.01 in 10.0 mi West 11.5 mph 21.9 mph N/A   Clear
9:08 PM 28.4 °F 21.2 °F 14.0 °F 55% 30.01 in 10.0 mi NW 6.9 mph 29.9 mph N/A   Scattered Clouds
9:28 PM 28.4 °F 18.0 °F 14.0 °F 55% 30.02 in 10.0 mi West 12.7 mph 21.9 mph N/A   Clear
9:48 PM 28.4 °F 16.2 °F 14.0 °F 55% 30.03 in 10.0 mi West 17.3 mph 26.5 mph N/A   Clear
10:08 PM 28.4 °F 17.0 °F 14.0 °F 55% 30.04 in 10.0 mi West 15.0 mph 29.9 mph N/A   Clear
10:28 PM 28.4 °F 17.5 °F 14.0 °F 55% 30.05 in 10.0 mi West 13.8 mph 27.6 mph N/A   Clear
10:48 PM 28.4 °F 18.0 °F 14.0 °F 55% 30.07 in 10.0 mi WNW 12.7 mph 26.5 mph N/A   Clear
11:08 PM 28.4 °F 19.7 °F 14.0 °F 55% 30.09 in 10.0 mi West 9.2 mph 17.3 mph N/A   Clear
11:28 PM 28.4 °F 21.2 °F 15.8 °F 59% 30.10 in 10.0 mi West 6.9 mph 16.1 mph N/A   Scattered Clouds
11:48 PM 28.4 °F 22.2 °F 17.6 °F 64% 30.12 in 10.0 mi West 5.8 mph - N/A   Mostly Cloudy